Weather History for Belize, Belize

Change the Weather History Date:

Thursday, August 28, 2014

  Actual Average Record
Temperature  
Mean Temperature 82 °F -  
Max Temperature 88 °F 88 °F 91 °F (1998)
Min Temperature 77 °F 75 °F 75 °F (1997)
Cooling Degree Days 18    
Growing Degree Days 32 (Base 50)    
Moisture  
Dew Point 77 °F    
Average Humidity 82    
Maximum Humidity 94    
Minimum Humidity 70    
Precipitation  
Precipitation 0.31 in 0.36 in - ()
Sea Level Pressure  
Sea Level Pressure 29.86 in    
Wind  
Wind Speed 2 mph ()    
Max Wind Speed 8 mph    
Max Gust Speed -    
Visibility 8.0 miles    
Events Rain , Thunderstorm    
Averages and records for this station are not official NWS values.
T = Trace of Precipitation, MM = Missing Value Source: Averaged Metar Reports

Daily Weather History Graph

Daily Weather History Graph

Search for Another Location

Airport:

Trip Planner

Search our weather history database for the weather conditions in past years. The results will help you decide how hot, cold, wet, or windy it might be!

Date:

Astronomy

Aug. 28, 2014 Rise Set
Actual Time 5:38 AM CST 6:09 PM CST
Civil Twilight 5:16 AM CST 6:32 PM CST
Nautical Twilight 4:50 AM CST 6:57 PM CST
Astronomical Twilight 4:24 AM CST 7:23 PM CST
Moon 8:00 AM CST (8/28) 8:07 PM CST (8/28)
Length of Visible Light 13h 15m
Length of Day
12h 31m
Waxing Crescent, 9% of the Moon is Illuminated
Aug 28
Waxing Crescent
Sep 2
First Quarter
Sep 8
Full
Sep 15
Last Quarter
Sep 24
New

Hourly Weather History & Observations

Time (CST) Temp. Heat Index Dew Point Humidity Pressure Visibility Wind Dir Wind Speed Gust Speed Precip Events Conditions
12:00 AM 81 °F - 78 °F 87% 29.92 in 12 mi WNW 3.5 mph - -   Partly Cloudy
3:00 AM 78 °F - 75 °F 88% 29.86 in 12 mi Calm Calm - -   Partly Cloudy
5:00 AM 77.0 °F - 75.2 °F 94% 29.83 in 6.2 mi Calm Calm - N/A   Partly Cloudy
6:00 AM 77.0 °F - 75.2 °F 94% 29.86 in 6.2 mi Calm Calm - N/A   Partly Cloudy
7:00 AM 78.8 °F - 75.2 °F 89% 29.88 in 6.2 mi West 3.5 mph - N/A   Partly Cloudy
8:00 AM 80.6 °F 86.2 °F 75.2 °F 84% 29.89 in 6.2 mi WNW 3.5 mph - N/A   Partly Cloudy
8:21 AM 80.6 °F 86.2 °F 75.2 °F 84% 29.90 in - North - - N/A Thunderstorm Thunderstorm
9:00 AM 80 °F - 77 °F 86% 29.91 in 12 mi WNW 2.3 mph - - Rain Light Rain
9:00 AM 80.6 °F 87.1 °F 77.0 °F 89% 2.99 in 6.2 mi WNW 2.3 mph - N/A Rain Light Rain
10:00 AM 80.6 °F 87.1 °F 77.0 °F 89% 29.89 in 6.2 mi ENE 2.3 mph - N/A   Partly Cloudy
11:00 AM 87.8 °F 99.7 °F 77.0 °F 70% 29.88 in 6.2 mi ENE 4.6 mph - N/A   Scattered Clouds
12:00 PM 86 °F - 78 °F 71% 29.87 in 12 mi Calm Calm - -   Partly Cloudy
12:00 PM 86.0 °F 99.3 °F 78.8 °F 79% 29.86 in 6.2 mi Calm Calm - N/A   Mostly Cloudy
1:00 PM 86.0 °F 101.9 °F 80.6 °F 84% 29.85 in 6.2 mi NE 4.6 mph - N/A   Mostly Cloudy
1:48 PM 86.0 °F 101.9 °F 80.6 °F 84% 29.84 in 6.2 mi ENE 6.9 mph - N/A Thunderstorm Thunderstorm
2:00 PM 83 °F - 78 °F 82% 29.83 in 12 mi Calm Calm - -   Mostly Cloudy
2:00 PM 87.8 °F 99.7 °F 77.0 °F 70% 29.85 in 6.2 mi East 6.9 mph - N/A Rain , Thunderstorm Light Thunderstorms and Rain
3:00 PM 82.4 °F 92.4 °F 78.8 °F 89% 29.82 in 6.2 mi Calm Calm - N/A   Mostly Cloudy
4:00 PM 87.8 °F 104.9 °F 80.6 °F 79% 29.79 in 6.2 mi NE 8.1 mph - N/A   Scattered Clouds
5:00 PM 87.8 °F 104.9 °F 80.6 °F 79% 29.80 in 6.2 mi ENE 8.1 mph - N/A   Scattered Clouds
6:00 PM 85 °F - 77 °F 71% 29.83 in 12 mi East 6.9 mph - -   Partly Cloudy
6:00 PM 86.0 °F 96.9 °F 77.0 °F 74% 29.82 in 6.2 mi East 6.9 mph - N/A   Scattered Clouds
9:00 PM 83 °F - 77 °F 77% 29.88 in 12 mi ESE 3.5 mph - -   Scattered Clouds